Weather Roundup
Issued by NWS Springfield, MO

Home | Current Version | Previous Version | Text Only | Print | Product List | Glossary On
Versions: 1 2 3 4 5 6 7 8 9 10 11 12 13 14 15 16 17 18 19 20 21 22 23 24 25 26 27 28 29 30 31 32 33 34 35 36 37 38 39 40 41 42 43 44 45 46 47 48 49 50
000
NZUS99 KSGF 202059
HRRSGF

HOURLY WEATHER
NATIONAL WEATHER SERVICE SPRINGFIELD MO
400 PM CDT SAT SEP 20 2014

......SGF CWA......

CITY           SKY/WX    TMP DP  RH WIND       PRES   REMARKS
SPRINGFIELD    MOSUNNY   84  68  58 SW10      29.98F
JOPLIN         MOSUNNY   84  70  62 SW16      29.98F
WEST PLAINS    MOSUNNY   84  67  56 SW8       30.01F
ROLLA          MOSUNNY   83  66  56 W12       29.97R
OSAGE BEACH    MOSUNNY   84  66  54 W8        29.97R
BRANSON        MOSUNNY   86  68  54 W6        30.02F

......SURROUNDING SGF CWA......

CITY           SKY/WX    TMP DP  RH WIND       PRES   REMARKS
CHANUTE        SUNNY     84  71  65 SW12      29.97F
PARSONS        MOSUNNY   85  72  65 S10       29.98F HX  91
EMPORIA        MOSUNNY   87  67  51 SW16      29.93F HX  90
SILOAM SPRINGS MOSUNNY   84  66  54 SW10      30.04S
HARRISON AR    LGT RAIN  82  70  66 S3        30.03F
NEAR YELLVILLE MOSUNNY   88  63  42 S3        29.99F

......KANSAS AND MISSOURI......

CITY           SKY/WX    TMP DP  RH WIND       PRES   REMARKS
KANSAS CTY INT CLOUDY    78  71  79 SW6       29.94R
DOWNTOWN KC    CLOUDY    83  69  62 SW8       29.92R
COLUMBIA       CLOUDY    83  68  60 SW10      29.94F
SEDALIA        CLOUDY    82  70  66 SW8       29.95F
ST JOSEPH      PTSUNNY   83  71  67 W12       29.91F
ST LOUIS       CLOUDY    87  68  52 W10       29.93S HX  90
SPIRIT OF STL  CLOUDY    84  69  60 SW8       29.92S
KIRKSVILLE     PTSUNNY   77  70  79 NW8       29.93F
WICHITA        MOSUNNY   91  60  35 SW12      29.95F HX  90
TOPEKA         PTSUNNY   85  67  54 SW6       29.93R
OLATHE         CLOUDY    82  70  66 SW10      29.93R

......TENNESSEE......

CITY           SKY/WX    TMP DP  RH WIND       PRES   REMARKS
MEMPHIS        PTSUNNY   88  63  43 S5        29.99F
NASHVILLE      PTSUNNY   86  64  47 SW3       30.02F

......ARKANSAS.......

CITY           SKY/WX    TMP DP  RH WIND       PRES   REMARKS
FAYETTEVILLE   MOSUNNY   82  68  62 SW6       30.04S
FT SMITH       MOSUNNY   88  66  48 VRB3      29.98F HX  90
LITTLE ROCK    PTSUNNY   88  63  43 S3        29.98F

......OKLAHOMA.......

CITY           SKY/WX    TMP DP  RH WIND       PRES   REMARKS
TULSA          MOSUNNY   88  68  51 S8        29.98F HX  91
PONCA CITY     MOSUNNY   89  66  46 S8G18     29.95F HX  91
MCALESTER      MOSUNNY   88  67  49 VRB6      30.00F HX  91
OKLAHOMA CITY  MOSUNNY   88  67  49 SE12      29.98F HX  91

......IOWA............

CITY           SKY/WX    TMP DP  RH WIND       PRES   REMARKS
DES MOINES     MOSUNNY   84  65  52 W15       29.85F
QUAD CITIES    PTSUNNY   79  68  69 W9        29.82F

......ILLINOIS........

CITY           SKY/WX    TMP DP  RH WIND       PRES   REMARKS
QUINCY         PTSUNNY   82  70  66 W12       29.91F
CHICAGO        LGT RAIN  73  67  81 W8G22     29.80F



USA.gov is the U.S. government's official web portal to all federal, state and local government web resources and services.